Barrow, AK

5:33 PM AKDT on June 24, 2018 (GMT -0800)
Wiley Post-Will Rogers Memorial

Weather History for PABR - November, 2017

Change the Weather History Date:

Friday, November 17, 2017

  Actual Average Record
Temperature  
Mean Temperature 14 °F 0 °F  
Max Temperature 17 °F 5 °F 31 °F (1996)
Min Temperature 11 °F -6 °F -33 °F (1956)
Degree Days  
Heating Degree Days 51 65  
Month to date heating degree days 593 1049  
Since 1 July heating degree days 4093 5072  
Cooling Degree Days 0 0  
Month to date cooling degree days 0 0  
Year to date cooling degree days 0 0  
Moisture  
Dew Point 9 °F    
Average Humidity 86    
Maximum Humidity 88    
Minimum Humidity 81    
Precipitation  
Precipitation T in 0.01 in 0.31 in (2010)
Month to date precipitation 0.69 0.13  
Year to date precipitation 7.73 4.31  
Snow  
Snow T in 0.20 in 6.40 in (2010)
Month to date snowfall 4.9 3.6  
Since 1 July snowfall 12.8 18.2  
Since 1 September snowfall 12.0 17.1  
Snow Depth 5.00 in    
Sea Level Pressure  
Sea Level Pressure 30.09 in    
Wind  
Wind Speed 6 mph (SSE)    
Max Wind Speed 10 mph    
Max Gust Speed -    
Visibility 9 miles    
Events Snow    
T = Trace of Precipitation, MM = Missing Value Source: NWS Daily Summary

Daily Weather History Graph

Daily Weather History Graph

Search for Another Location

Airport or City:

Astronomy

Nov. 17, 2017 Rise Set
Actual Time 12:25 PM AKST 1:57 PM AKST
Civil Twilight 10:03 AM AKST 4:19 PM AKST
Nautical Twilight 8:31 AM AKST 5:51 PM AKST
Astronomical Twilight 7:13 AM AKST 7:09 PM AKST
Moon 9:26 AM AKST (11/17) 4:01 PM AKST (11/17)
Length of Visible Light 6h 15m
Length of Day
1h 32m
Waning Crescent, 0% of the Moon is Illuminated
Nov 17
Waning Crescent
Nov 18
New
Nov 26
First Quarter
Dec 3
Full
Dec 9
Last Quarter

Hourly Weather History & Observations

Time (AKST) Temp. Windchill Dew Point Humidity Pressure Visibility Wind Dir Wind Speed Gust Speed Precip Events Conditions
12:53 AM 16.0 °F 3.6 °F 10.9 °F 81% 29.84 in 10.0 mi East 10.4 mph - N/A   Mostly Cloudy
1:53 AM 12.0 °F 2.7 °F 9.0 °F 88% 29.87 in 10.0 mi ESE 5.8 mph - N/A   Overcast
2:53 AM 12.9 °F - 9.0 °F 84% 29.90 in 10.0 mi Calm Calm - N/A   Overcast
3:53 AM 12.9 °F 5.2 °F 9.0 °F 84% 29.94 in 10.0 mi SSE 4.6 mph - N/A   Mostly Cloudy
4:53 AM 12.9 °F 6.9 °F 9.0 °F 84% 29.95 in 10.0 mi East 3.5 mph - N/A   Scattered Clouds
5:18 AM 12.9 °F 6.9 °F 9.0 °F 84% 29.96 in 10.0 mi East 3.5 mph - N/A   Mostly Cloudy
5:26 AM 12.9 °F 5.2 °F 10.0 °F 88% 29.96 in 10.0 mi ESE 4.6 mph - N/A   Scattered Clouds
5:35 AM 12.9 °F 5.2 °F 10.0 °F 88% 29.97 in 10.0 mi ESE 4.6 mph - N/A   Mostly Cloudy
5:53 AM 10.9 °F 1.4 °F 8.1 °F 88% 29.98 in 10.0 mi SE 5.8 mph - N/A   Mostly Cloudy
6:53 AM 12.0 °F 2.7 °F 8.1 °F 84% 30.01 in 10.0 mi SSE 5.8 mph - N/A   Overcast
7:53 AM 12.9 °F 5.2 °F 9.0 °F 84% 30.04 in 10.0 mi SSE 4.6 mph - N/A   Overcast
8:53 AM 12.9 °F 5.2 °F 10.0 °F 88% 30.06 in 10.0 mi South 4.6 mph - N/A   Overcast
9:53 AM 12.9 °F 3.8 °F 10.0 °F 88% 30.08 in 10.0 mi SSE 5.8 mph - N/A   Overcast
10:53 AM 12.9 °F 3.8 °F 9.0 °F 84% 30.10 in 10.0 mi SSE 5.8 mph - N/A   Overcast
11:53 AM 12.9 °F - 8.1 °F 81% 30.12 in 4.0 mi Calm Calm - 0.00 in Snow Light Snow
12:53 PM 12.9 °F 6.9 °F 9.0 °F 84% 30.15 in 9.0 mi SSW 3.5 mph - 0.00 in Snow Light Snow
1:53 PM 12.9 °F 2.6 °F 9.0 °F 84% 30.17 in 8.0 mi SSW 6.9 mph - 0.00 in Snow Light Snow
2:53 PM 12.9 °F 5.2 °F 9.0 °F 84% 30.18 in 6.0 mi SSW 4.6 mph - 0.00 in Snow Light Snow
3:53 PM 12.9 °F 2.6 °F 9.0 °F 84% 30.20 in 9.0 mi SSW 6.9 mph - 0.00 in   Overcast
4:53 PM 12.0 °F 0.5 °F 9.0 °F 88% 30.21 in 10.0 mi SW 8.1 mph - N/A   Overcast
5:53 PM 12.0 °F -0.4 °F 9.0 °F 88% 30.21 in 9.0 mi SSW 9.2 mph - 0.00 in Snow Light Snow
6:53 PM 12.0 °F 1.5 °F 9.0 °F 88% 30.21 in 9.0 mi South 6.9 mph - 0.00 in Snow Light Snow
7:53 PM 12.0 °F 2.7 °F 9.0 °F 88% 30.22 in 9.0 mi South 5.8 mph - 0.00 in Snow Light Snow
8:53 PM 12.0 °F 1.5 °F 9.0 °F 88% 30.23 in 9.0 mi SSW 6.9 mph - 0.00 in Snow Light Snow
9:53 PM 12.9 °F 3.8 °F 9.0 °F 84% 30.24 in 9.0 mi SSW 5.8 mph - 0.00 in Snow Light Snow
10:53 PM 12.2 °F 4.3 °F 8.6 °F 85% 30.24 in 9.0 mi South 4.6 mph - N/A Snow Light Snow
11:53 PM 12.9 °F 3.8 °F 10.0 °F 88% 30.27 in 9.0 mi South 5.8 mph - 0.00 in Snow Light Snow